Time,TemperatureF,DewpointF,PressureIn,WindDirection,WindDirectionDegrees,WindSpeedMPH,WindSpeedGustMPH,Humidity,HourlyPrecipIn,Conditions,Clouds,dailyrainin,SoftwareType,DateUTC
2014-12-25 00:03:00,38.5,37.9,30.14,SE,135,2.0,0.0,98,0.00,,,0.54,meteohub,2014-12-25 08:03:00,
2014-12-25 00:08:00,38.5,37.9,30.14,South,180,0.0,2.0,98,0.00,,,0.00,meteohub,2014-12-25 08:08:00,
2014-12-25 00:13:00,38.5,37.9,30.14,South,180,0.0,3.0,98,0.00,,,0.00,meteohub,2014-12-25 08:13:00,
2014-12-25 00:18:00,38.5,37.9,30.14,East,90,2.0,3.0,98,0.00,,,0.00,meteohub,2014-12-25 08:18:00,
2014-12-25 00:23:00,38.5,37.9,30.14,ESE,112,0.0,3.0,98,0.00,,,0.00,meteohub,2014-12-25 08:23:00,
2014-12-25 00:28:00,38.5,37.9,30.17,ESE,112,2.0,2.0,98,0.00,,,0.00,meteohub,2014-12-25 08:28:00,
2014-12-25 00:33:00,38.5,37.9,30.17,SSE,158,2.0,2.0,98,0.00,,,0.00,meteohub,2014-12-25 08:33:00,
2014-12-25 00:38:00,38.5,37.9,30.17,ESE,112,2.0,2.0,98,0.00,,,0.00,meteohub,2014-12-25 08:38:00,
2014-12-25 00:43:00,38.5,37.9,30.14,East,90,2.0,2.0,98,0.00,,,0.00,meteohub,2014-12-25 08:43:00,
2014-12-25 00:48:00,38.5,37.9,30.14,SE,135,0.0,3.0,98,0.00,,,0.00,meteohub,2014-12-25 08:48:00,
2014-12-25 00:53:00,38.5,37.9,30.17,SE,135,1.0,3.0,98,0.00,,,0.00,meteohub,2014-12-25 08:53:00,
2014-12-25 00:58:00,38.5,37.9,30.17,SE,135,0.0,3.0,98,0.00,,,0.00,meteohub,2014-12-25 08:58:00,
2014-12-25 01:03:00,38.5,37.9,30.17,ESE,112,2.0,3.0,98,0.00,,,0.00,meteohub,2014-12-25 09:03:00,
2014-12-25 01:08:00,38.5,37.9,30.17,SE,135,3.0,3.0,98,0.00,,,0.00,meteohub,2014-12-25 09:08:00,
2014-12-25 01:13:00,38.5,37.9,30.17,SSW,202,0.0,3.0,98,0.00,,,0.00,meteohub,2014-12-25 09:13:00,
2014-12-25 01:18:00,38.5,37.9,30.17,SE,135,1.0,3.0,98,0.00,,,0.00,meteohub,2014-12-25 09:18:00,
2014-12-25 01:23:00,38.5,37.9,30.17,SE,135,0.0,3.0,98,0.00,,,0.00,meteohub,2014-12-25 09:23:00,
2014-12-25 01:28:00,38.5,37.9,30.17,SW,225,0.0,3.0,98,0.00,,,0.00,meteohub,2014-12-25 09:28:00,
2014-12-25 01:33:00,38.5,37.9,30.17,West,270,0.0,2.0,98,0.00,,,0.00,meteohub,2014-12-25 09:33:00,
2014-12-25 01:38:00,38.5,37.9,30.17,WSW,248,1.0,0.0,98,0.00,,,0.00,meteohub,2014-12-25 09:38:00,
2014-12-25 01:44:00,38.5,37.9,30.17,SSE,158,2.0,2.0,98,0.00,,,0.00,meteohub,2014-12-25 09:44:00,
2014-12-25 01:49:00,38.5,37.9,30.17,South,180,0.0,4.0,98,0.00,,,0.00,meteohub,2014-12-25 09:49:00,
2014-12-25 01:54:00,38.5,37.9,30.17,WSW,248,2.0,4.0,98,0.00,,,0.00,meteohub,2014-12-25 09:54:00,
2014-12-25 01:59:00,38.5,37.9,30.17,NW,315,2.0,4.0,98,0.00,,,0.00,meteohub,2014-12-25 09:59:00,
2014-12-25 02:04:00,38.5,37.9,30.17,SW,225,0.0,3.0,98,0.00,,,0.00,meteohub,2014-12-25 10:04:00,
2014-12-25 02:09:00,38.7,38.1,30.17,WSW,248,0.0,3.0,98,0.00,,,0.00,meteohub,2014-12-25 10:09:00,
2014-12-25 02:14:00,38.7,38.1,30.17,WSW,248,0.0,2.0,98,0.00,,,0.00,meteohub,2014-12-25 10:14:00,
2014-12-25 02:19:00,38.7,38.1,30.17,SSE,158,0.0,2.0,98,0.00,,,0.00,meteohub,2014-12-25 10:19:00,
2014-12-25 02:24:00,38.7,38.1,30.20,SSE,158,0.0,2.0,98,0.00,,,0.00,meteohub,2014-12-25 10:24:00,
2014-12-25 02:29:00,38.7,38.1,30.20,SSE,158,0.0,2.0,98,0.00,,,0.00,meteohub,2014-12-25 10:29:00,
2014-12-25 02:34:00,38.7,38.1,30.20,SSE,158,0.0,0.0,98,0.04,,,0.04,meteohub,2014-12-25 10:34:00,
2014-12-25 02:39:00,38.7,38.1,30.20,SSE,158,2.0,0.0,98,0.04,,,0.04,meteohub,2014-12-25 10:39:00,
2014-12-25 02:44:00,38.7,38.1,30.20,East,90,3.0,0.0,98,0.04,,,0.04,meteohub,2014-12-25 10:44:00,
2014-12-25 02:49:00,38.7,38.1,30.20,ESE,112,3.0,3.0,98,0.04,,,0.04,meteohub,2014-12-25 10:49:00,
2014-12-25 02:54:00,38.7,38.1,30.17,ESE,112,0.0,4.0,98,0.04,,,0.04,meteohub,2014-12-25 10:54:00,
2014-12-25 02:59:00,38.7,38.1,30.17,SE,135,0.0,4.0,98,0.04,,,0.04,meteohub,2014-12-25 10:59:00,
2014-12-25 03:04:00,38.5,37.9,30.17,ESE,112,2.0,4.0,98,0.04,,,0.04,meteohub,2014-12-25 11:04:00,
2014-12-25 03:09:00,38.5,37.9,30.20,ESE,112,0.0,3.0,98,0.04,,,0.04,meteohub,2014-12-25 11:09:00,
2014-12-25 03:14:00,38.5,37.9,30.20,WSW,248,0.0,3.0,98,0.04,,,0.04,meteohub,2014-12-25 11:14:00,
2014-12-25 03:19:00,38.5,37.9,30.20,West,270,2.0,3.0,98,0.04,,,0.04,meteohub,2014-12-25 11:19:00,
2014-12-25 03:24:00,38.7,38.1,30.23,West,270,2.0,3.0,98,0.04,,,0.04,meteohub,2014-12-25 11:24:00,
2014-12-25 03:29:00,38.7,38.1,30.23,WSW,248,0.0,3.0,98,0.04,,,0.04,meteohub,2014-12-25 11:29:00,
2014-12-25 03:34:00,38.7,38.1,30.23,WSW,248,0.0,3.0,98,0.00,,,0.04,meteohub,2014-12-25 11:34:00,
2014-12-25 03:39:00,38.7,38.1,30.23,SSE,158,0.0,3.0,98,0.00,,,0.04,meteohub,2014-12-25 11:39:00,
2014-12-25 03:44:00,38.7,38.1,30.23,SSE,158,0.0,0.0,98,0.00,,,0.04,meteohub,2014-12-25 11:44:00,
2014-12-25 03:49:00,38.7,38.1,30.23,ESE,112,3.0,0.0,98,0.04,,,0.08,meteohub,2014-12-25 11:49:00,
2014-12-25 03:54:00,38.7,38.1,30.23,East,90,4.0,4.0,98,0.04,,,0.08,meteohub,2014-12-25 11:54:00,
2014-12-25 03:59:00,38.7,38.1,30.23,ENE,68,2.0,3.0,98,0.04,,,0.08,meteohub,2014-12-25 11:59:00,
2014-12-25 04:05:00,38.7,38.1,30.23,ENE,68,1.0,4.0,98,0.08,,,0.12,meteohub,2014-12-25 12:05:00,
2014-12-25 04:10:00,38.8,38.3,30.23,NE,45,4.0,4.0,98,0.08,,,0.12,meteohub,2014-12-25 12:10:00,
2014-12-25 04:15:00,38.7,38.1,30.23,North,0,2.0,4.0,98,0.08,,,0.12,meteohub,2014-12-25 12:15:00,
2014-12-25 04:20:00,38.7,38.1,30.23,NE,45,1.0,4.0,98,0.08,,,0.12,meteohub,2014-12-25 12:20:00,
2014-12-25 04:25:00,38.7,38.1,30.23,East,90,0.0,4.0,98,0.08,,,0.12,meteohub,2014-12-25 12:25:00,
2014-12-25 04:30:00,38.7,38.1,30.23,East,90,0.0,4.0,98,0.08,,,0.12,meteohub,2014-12-25 12:30:00,
2014-12-25 04:35:00,38.7,38.1,30.23,East,90,0.0,3.0,98,0.08,,,0.12,meteohub,2014-12-25 12:35:00,
2014-12-25 04:40:00,38.7,38.1,30.23,East,90,0.0,3.0,98,0.08,,,0.16,meteohub,2014-12-25 12:40:00,
2014-12-25 04:45:00,38.7,38.1,30.23,East,90,0.0,0.0,98,0.08,,,0.16,meteohub,2014-12-25 12:45:00,
2014-12-25 04:50:00,38.7,38.1,30.23,SSW,202,0.0,0.0,98,0.08,,,0.16,meteohub,2014-12-25 12:50:00,
2014-12-25 04:55:00,38.7,38.1,30.20,SW,225,0.0,0.0,98,0.08,,,0.16,meteohub,2014-12-25 12:55:00,
2014-12-25 05:00:00,38.7,38.1,30.20,SSW,202,0.0,0.0,98,0.04,,,0.16,meteohub,2014-12-25 13:00:00,
2014-12-25 05:05:00,38.7,38.1,30.20,SE,135,2.0,0.0,98,0.08,,,0.20,meteohub,2014-12-25 13:05:00,
2014-12-25 05:10:00,38.8,38.3,30.23,SE,135,2.0,0.0,98,0.08,,,0.20,meteohub,2014-12-25 13:10:00,
2014-12-25 05:15:00,38.8,38.3,30.23,SE,135,2.0,4.0,98,0.08,,,0.20,meteohub,2014-12-25 13:15:00,
2014-12-25 05:20:00,38.8,38.3,30.23,SE,135,3.0,4.0,98,0.08,,,0.20,meteohub,2014-12-25 13:20:00,
2014-12-25 05:25:00,38.8,38.3,30.23,ESE,112,1.0,4.0,98,0.08,,,0.20,meteohub,2014-12-25 13:25:00,
2014-12-25 05:30:00,38.7,38.1,30.23,ESE,112,2.0,4.0,98,0.08,,,0.20,meteohub,2014-12-25 13:30:00,
2014-12-25 05:35:00,38.7,38.1,30.23,ESE,112,3.0,4.0,98,0.08,,,0.20,meteohub,2014-12-25 13:35:00,
2014-12-25 05:40:00,38.7,38.1,30.23,East,90,2.0,4.0,98,0.04,,,0.20,meteohub,2014-12-25 13:40:00,
2014-12-25 05:45:00,38.5,37.9,30.23,ESE,112,2.0,3.0,98,0.04,,,0.20,meteohub,2014-12-25 13:45:00,
2014-12-25 05:50:00,38.5,37.9,30.23,East,90,5.0,5.0,98,0.04,,,0.20,meteohub,2014-12-25 13:50:00,
2014-12-25 05:55:00,38.5,37.9,30.23,East,90,2.0,5.0,98,0.04,,,0.20,meteohub,2014-12-25 13:55:00,
2014-12-25 06:00:00,38.3,37.8,30.23,ESE,112,1.0,5.0,98,0.04,,,0.20,meteohub,2014-12-25 14:00:00,
2014-12-25 06:05:00,38.3,37.8,30.23,SSW,202,1.0,6.0,98,0.00,,,0.20,meteohub,2014-12-25 14:05:00,
2014-12-25 06:10:00,38.3,37.8,30.20,SE,135,2.0,6.0,98,0.00,,,0.20,meteohub,2014-12-25 14:10:00,
2014-12-25 06:15:00,38.3,37.8,30.20,SE,135,0.0,3.0,98,0.00,,,0.20,meteohub,2014-12-25 14:15:00,
2014-12-25 06:20:00,38.3,37.8,30.20,WNW,292,0.0,3.0,98,0.00,,,0.20,meteohub,2014-12-25 14:20:00,
2014-12-25 06:25:00,38.3,37.8,30.23,SE,135,0.0,2.0,98,0.00,,,0.20,meteohub,2014-12-25 14:25:00,
2014-12-25 06:30:00,38.3,37.8,30.23,East,90,1.0,2.0,98,0.00,,,0.20,meteohub,2014-12-25 14:30:00,
2014-12-25 06:35:00,38.3,37.8,30.23,SSE,158,1.0,2.0,98,0.00,,,0.20,meteohub,2014-12-25 14:35:00,
2014-12-25 06:40:00,38.3,37.8,30.23,South,180,0.0,3.0,98,0.00,,,0.25,meteohub,2014-12-25 14:40:00,
2014-12-25 06:45:00,38.3,37.8,30.23,SW,225,0.0,3.0,98,0.05,,,0.25,meteohub,2014-12-25 14:45:00,
2014-12-25 06:50:00,38.3,37.8,30.23,WNW,292,1.0,3.0,98,0.05,,,0.25,meteohub,2014-12-25 14:50:00,
2014-12-25 06:56:00,38.3,37.8,30.26,NW,315,0.0,3.0,98,0.05,,,0.25,meteohub,2014-12-25 14:56:00,
2014-12-25 07:01:00,38.3,37.8,30.26,NW,315,0.0,3.0,98,0.05,,,0.25,meteohub,2014-12-25 15:01:00,
2014-12-25 07:06:00,38.3,37.8,30.26,ESE,112,0.0,2.0,98,0.05,,,0.25,meteohub,2014-12-25 15:06:00,
2014-12-25 07:11:00,38.3,37.8,30.26,SSE,158,0.0,2.0,98,0.05,,,0.25,meteohub,2014-12-25 15:11:00,
2014-12-25 07:16:00,38.3,37.8,30.26,South,180,0.0,2.0,98,0.05,,,0.25,meteohub,2014-12-25 15:16:00,
2014-12-25 07:21:00,38.3,37.8,30.26,SSE,158,2.0,2.0,98,0.05,,,0.25,meteohub,2014-12-25 15:21:00,
2014-12-25 07:26:00,38.3,37.8,30.26,SE,135,3.0,3.0,98,0.05,,,0.25,meteohub,2014-12-25 15:26:00,
2014-12-25 07:31:00,38.3,37.8,30.26,SSE,158,2.0,3.0,98,0.05,,,0.25,meteohub,2014-12-25 15:31:00,
2014-12-25 07:36:00,38.1,37.6,30.26,SSE,158,2.0,4.0,98,0.08,,,0.28,meteohub,2014-12-25 15:36:00,
2014-12-25 07:41:00,38.1,37.6,30.26,SE,135,0.0,4.0,98,0.03,,,0.28,meteohub,2014-12-25 15:41:00,
2014-12-25 07:46:00,38.1,37.6,30.26,SE,135,0.0,3.0,98,0.03,,,0.28,meteohub,2014-12-25 15:46:00,
2014-12-25 07:51:00,38.1,37.6,30.26,SE,135,1.0,3.0,98,0.03,,,0.28,meteohub,2014-12-25 15:51:00,
2014-12-25 07:56:00,38.1,37.6,30.26,NW,315,2.0,3.0,98,0.03,,,0.28,meteohub,2014-12-25 15:56:00,
2014-12-25 08:01:00,38.1,37.6,30.26,NNW,338,0.0,3.0,98,0.03,,,0.28,meteohub,2014-12-25 16:01:00,
2014-12-25 08:06:00,38.1,37.6,30.26,NNW,338,0.0,2.0,98,0.03,,,0.28,meteohub,2014-12-25 16:06:00,
2014-12-25 08:11:00,38.1,37.6,30.26,SE,135,1.0,2.0,98,0.03,,,0.28,meteohub,2014-12-25 16:11:00,
2014-12-25 08:16:00,38.1,37.6,30.26,SE,135,0.0,2.0,98,0.03,,,0.28,meteohub,2014-12-25 16:16:00,
2014-12-25 08:21:00,38.1,37.6,30.26,SE,135,0.0,2.0,98,0.03,,,0.28,meteohub,2014-12-25 16:21:00,
2014-12-25 08:26:00,38.3,37.8,30.26,ESE,112,0.0,2.0,98,0.03,,,0.28,meteohub,2014-12-25 16:26:00,
2014-12-25 08:31:00,38.3,37.8,30.26,ESE,112,2.0,2.0,98,0.03,,,0.28,meteohub,2014-12-25 16:31:00,
2014-12-25 08:36:00,38.3,37.8,30.26,SE,135,3.0,3.0,98,0.00,,,0.28,meteohub,2014-12-25 16:36:00,
2014-12-25 08:41:00,38.3,37.8,30.26,East,90,0.0,3.0,98,0.00,,,0.28,meteohub,2014-12-25 16:41:00,
2014-12-25 08:46:00,38.1,37.6,30.26,ESE,112,1.0,4.0,98,0.00,,,0.28,meteohub,2014-12-25 16:46:00,
2014-12-25 08:51:00,38.1,37.6,30.26,NW,315,0.0,4.0,98,0.00,,,0.28,meteohub,2014-12-25 16:51:00,
2014-12-25 08:56:00,38.1,37.6,30.29,SE,135,0.0,3.0,98,0.00,,,0.28,meteohub,2014-12-25 16:56:00,
2014-12-25 09:01:00,38.1,37.6,30.29,ESE,112,4.0,4.0,98,0.00,,,0.28,meteohub,2014-12-25 17:01:00,
2014-12-25 09:06:00,38.1,37.6,30.29,SE,135,3.0,4.0,98,0.00,,,0.28,meteohub,2014-12-25 17:06:00,
2014-12-25 09:11:00,38.3,37.8,30.29,ESE,112,2.0,4.0,98,0.00,,,0.28,meteohub,2014-12-25 17:11:00,
2014-12-25 09:16:00,38.3,37.8,30.29,NW,315,0.0,4.0,98,0.00,,,0.28,meteohub,2014-12-25 17:16:00,
2014-12-25 09:21:00,38.5,37.9,30.29,East,90,3.0,4.0,98,0.00,,,0.28,meteohub,2014-12-25 17:21:00,
2014-12-25 09:26:00,38.5,37.9,30.29,South,180,3.0,3.0,98,0.00,,,0.28,meteohub,2014-12-25 17:26:00,
2014-12-25 09:31:00,38.5,37.9,30.29,South,180,2.0,3.0,98,0.00,,,0.28,meteohub,2014-12-25 17:31:00,
2014-12-25 09:36:00,38.7,38.1,30.29,SW,225,1.0,4.0,98,0.00,,,0.28,meteohub,2014-12-25 17:36:00,
2014-12-25 09:41:00,38.7,38.1,30.29,NW,315,0.0,4.0,98,0.00,,,0.28,meteohub,2014-12-25 17:41:00,
2014-12-25 09:46:00,38.7,38.1,30.29,North,0,0.0,4.0,98,0.00,,,0.28,meteohub,2014-12-25 17:46:00,
2014-12-25 09:51:00,38.8,38.3,30.29,NNW,338,2.0,4.0,98,0.00,,,0.28,meteohub,2014-12-25 17:51:00,
2014-12-25 09:56:00,39.0,38.5,30.29,South,180,0.0,4.0,98,0.00,,,0.28,meteohub,2014-12-25 17:56:00,
2014-12-25 10:01:00,39.0,38.5,30.29,NNW,338,2.0,4.0,98,0.00,,,0.28,meteohub,2014-12-25 18:01:00,
2014-12-25 10:06:00,39.0,38.5,30.29,NNW,338,3.0,4.0,98,0.00,,,0.28,meteohub,2014-12-25 18:06:00,
2014-12-25 10:11:00,39.2,38.7,30.29,NNE,22,3.0,4.0,98,0.00,,,0.28,meteohub,2014-12-25 18:11:00,
2014-12-25 10:16:00,39.2,38.7,30.29,East,90,3.0,4.0,98,0.00,,,0.28,meteohub,2014-12-25 18:16:00,
2014-12-25 10:21:00,39.2,38.7,30.29,East,90,4.0,4.0,98,0.00,,,0.28,meteohub,2014-12-25 18:21:00,
2014-12-25 10:26:00,39.2,38.7,30.29,SSE,158,0.0,4.0,98,0.00,,,0.28,meteohub,2014-12-25 18:26:00,
2014-12-25 10:31:00,39.2,38.7,30.29,ESE,112,3.0,4.0,98,0.00,,,0.28,meteohub,2014-12-25 18:31:00,
2014-12-25 10:36:00,39.2,38.7,30.29,SSE,158,2.0,3.0,98,0.00,,,0.28,meteohub,2014-12-25 18:36:00,
2014-12-25 10:41:00,39.2,38.7,30.32,SE,135,1.0,3.0,98,0.00,,,0.28,meteohub,2014-12-25 18:41:00,
2014-12-25 10:46:00,39.4,38.8,30.32,SSE,158,1.0,3.0,98,0.00,,,0.28,meteohub,2014-12-25 18:46:00,
2014-12-25 10:51:00,39.7,39.2,30.32,ESE,112,1.0,3.0,98,0.00,,,0.28,meteohub,2014-12-25 18:51:00,
2014-12-25 10:57:00,39.7,39.2,30.29,SSE,158,3.0,3.0,98,0.00,,,0.28,meteohub,2014-12-25 18:57:00,
2014-12-25 11:01:00,40.1,39.6,30.29,South,180,0.0,5.0,98,0.00,,,0.28,meteohub,2014-12-25 19:01:00,
2014-12-25 11:06:00,40.3,39.7,30.29,WSW,248,2.0,5.0,98,0.00,,,0.28,meteohub,2014-12-25 19:06:00,
2014-12-25 11:11:00,40.5,39.9,30.29,WSW,248,3.0,5.0,98,0.00,,,0.28,meteohub,2014-12-25 19:11:00,
2014-12-25 11:16:00,40.6,40.1,30.29,SW,225,0.0,3.0,98,0.00,,,0.28,meteohub,2014-12-25 19:16:00,
2014-12-25 11:21:00,40.8,40.3,30.29,SSW,202,0.0,3.0,98,0.05,,,0.28,meteohub,2014-12-25 19:21:00,
2014-12-25 11:26:00,41.0,40.5,30.29,SE,135,1.0,3.0,98,0.05,,,0.28,meteohub,2014-12-25 19:26:00,
2014-12-25 11:32:00,41.2,40.6,30.29,SE,135,4.0,4.0,98,0.05,,,0.33,meteohub,2014-12-25 19:32:00,
2014-12-25 11:37:00,41.4,40.8,30.29,SSE,158,0.0,4.0,98,0.05,,,0.33,meteohub,2014-12-25 19:37:00,
2014-12-25 11:42:00,41.5,41.0,30.29,SSE,158,3.0,5.0,98,0.05,,,0.33,meteohub,2014-12-25 19:42:00,
2014-12-25 11:47:00,41.7,41.2,30.29,SE,135,0.0,5.0,98,0.05,,,0.33,meteohub,2014-12-25 19:47:00,
2014-12-25 11:52:00,41.9,41.4,30.29,SE,135,3.0,5.0,98,0.05,,,0.33,meteohub,2014-12-25 19:52:00,
2014-12-25 11:57:00,41.9,41.4,30.29,ESE,112,2.0,5.0,98,0.05,,,0.33,meteohub,2014-12-25 19:57:00,
2014-12-25 12:02:00,42.3,41.7,30.29,SSE,158,0.0,4.0,98,0.05,,,0.33,meteohub,2014-12-25 20:02:00,
2014-12-25 12:07:00,42.3,41.7,30.29,SSE,158,3.0,5.0,98,0.05,,,0.33,meteohub,2014-12-25 20:07:00,
2014-12-25 12:12:00,42.4,41.9,30.29,WSW,248,0.0,6.0,98,0.05,,,0.33,meteohub,2014-12-25 20:12:00,
2014-12-25 12:17:00,42.6,42.1,30.29,SE,135,2.0,6.0,98,0.05,,,0.33,meteohub,2014-12-25 20:17:00,
2014-12-25 12:22:00,42.8,42.3,30.29,ESE,112,2.0,6.0,98,0.05,,,0.33,meteohub,2014-12-25 20:22:00,
2014-12-25 12:27:00,42.8,42.3,30.26,SW,225,1.0,6.0,98,0.00,,,0.33,meteohub,2014-12-25 20:27:00,
2014-12-25 12:32:00,43.0,42.4,30.26,WSW,248,4.0,4.0,98,0.00,,,0.33,meteohub,2014-12-25 20:32:00,
2014-12-25 12:37:00,43.0,42.4,30.26,SW,225,3.0,4.0,98,0.00,,,0.33,meteohub,2014-12-25 20:37:00,
2014-12-25 12:42:00,42.8,42.3,30.26,West,270,2.0,4.0,98,0.00,,,0.33,meteohub,2014-12-25 20:42:00,
2014-12-25 12:47:00,42.8,42.3,30.26,NNE,22,0.0,4.0,98,0.00,,,0.33,meteohub,2014-12-25 20:47:00,
2014-12-25 12:52:00,42.8,42.3,30.26,West,270,3.0,3.0,98,0.00,,,0.33,meteohub,2014-12-25 20:52:00,
2014-12-25 12:57:00,43.0,42.4,30.29,SW,225,1.0,3.0,98,0.00,,,0.33,meteohub,2014-12-25 20:57:00,
2014-12-25 13:02:00,43.0,42.4,30.29,South,180,3.0,4.0,98,0.00,,,0.33,meteohub,2014-12-25 21:02:00,
2014-12-25 13:07:00,43.2,42.6,30.29,SE,135,4.0,4.0,98,0.00,,,0.33,meteohub,2014-12-25 21:07:00,
2014-12-25 13:12:00,43.3,42.6,30.29,West,270,1.0,5.0,97,0.00,,,0.33,meteohub,2014-12-25 21:12:00,
2014-12-25 13:17:00,43.5,42.8,30.29,SSE,158,3.0,5.0,97,0.00,,,0.33,meteohub,2014-12-25 21:17:00,
2014-12-25 13:22:00,43.5,42.8,30.29,SE,135,1.0,5.0,97,0.00,,,0.33,meteohub,2014-12-25 21:22:00,
2014-12-25 13:27:00,43.7,42.6,30.29,SSE,158,0.0,5.0,96,0.00,,,0.33,meteohub,2014-12-25 21:27:00,
2014-12-25 13:32:00,43.9,42.8,30.29,North,0,0.0,3.0,96,0.00,,,0.33,meteohub,2014-12-25 21:32:00,
2014-12-25 13:37:00,43.9,42.8,30.29,East,90,0.0,3.0,96,0.00,,,0.33,meteohub,2014-12-25 21:37:00,
2014-12-25 13:42:00,44.1,43.0,30.29,WNW,292,0.0,1.0,96,0.00,,,0.33,meteohub,2014-12-25 21:42:00,
2014-12-25 13:47:00,44.2,43.2,30.29,East,90,0.0,2.0,96,0.00,,,0.33,meteohub,2014-12-25 21:47:00,
2014-12-25 13:52:00,44.1,43.0,30.29,NE,45,2.0,2.0,96,0.00,,,0.33,meteohub,2014-12-25 21:52:00,
2014-12-25 13:57:00,44.2,43.2,30.29,East,90,0.0,2.0,96,0.00,,,0.33,meteohub,2014-12-25 21:57:00,
2014-12-25 14:02:00,44.2,43.2,30.29,NE,45,2.0,3.0,96,0.00,,,0.33,meteohub,2014-12-25 22:02:00,
2014-12-25 14:07:00,44.2,43.2,30.29,East,90,1.0,3.0,96,0.00,,,0.33,meteohub,2014-12-25 22:07:00,
2014-12-25 14:12:00,44.2,43.2,30.29,East,90,2.0,3.0,96,0.00,,,0.33,meteohub,2014-12-25 22:12:00,
2014-12-25 14:17:00,44.2,43.2,30.29,East,90,0.0,3.0,96,0.00,,,0.33,meteohub,2014-12-25 22:17:00,
2014-12-25 14:22:00,44.2,43.2,30.29,East,90,0.0,3.0,96,0.00,,,0.33,meteohub,2014-12-25 22:22:00,
2014-12-25 14:27:00,44.1,43.0,30.26,East,90,0.0,3.0,96,0.00,,,0.33,meteohub,2014-12-25 22:27:00,
2014-12-25 14:32:00,44.1,43.0,30.26,East,90,0.0,0.0,96,0.00,,,0.33,meteohub,2014-12-25 22:32:00,
2014-12-25 14:37:00,44.1,43.0,30.26,NNW,338,0.0,2.0,96,0.00,,,0.33,meteohub,2014-12-25 22:37:00,
2014-12-25 14:42:00,43.9,42.8,30.32,NNW,338,2.0,3.0,96,0.00,,,0.33,meteohub,2014-12-25 22:42:00,
2014-12-25 14:47:00,43.7,42.6,30.32,ENE,68,1.0,3.0,96,0.00,,,0.33,meteohub,2014-12-25 22:47:00,
2014-12-25 14:52:00,43.7,42.6,30.32,NE,45,2.0,3.0,96,0.00,,,0.33,meteohub,2014-12-25 22:52:00,
2014-12-25 14:57:00,43.5,42.4,30.29,NE,45,0.0,3.0,96,0.00,,,0.33,meteohub,2014-12-25 22:57:00,
2014-12-25 15:02:00,43.3,42.3,30.29,NNE,22,3.0,3.0,96,0.00,,,0.33,meteohub,2014-12-25 23:02:00,
2014-12-25 15:07:00,43.3,42.3,30.29,NNE,22,2.0,3.0,96,0.00,,,0.33,meteohub,2014-12-25 23:07:00,
2014-12-25 15:12:00,43.2,42.1,30.32,ENE,68,0.0,3.0,96,0.00,,,0.33,meteohub,2014-12-25 23:12:00,
2014-12-25 15:17:00,43.0,41.9,30.32,North,0,2.0,3.0,96,0.00,,,0.33,meteohub,2014-12-25 23:17:00,
2014-12-25 15:22:00,43.0,41.9,30.32,ENE,68,2.0,3.0,96,0.00,,,0.33,meteohub,2014-12-25 23:22:00,
2014-12-25 15:27:00,42.8,41.7,30.32,NNE,22,2.0,3.0,96,0.00,,,0.33,meteohub,2014-12-25 23:27:00,
2014-12-25 15:32:00,42.8,41.7,30.32,ENE,68,0.0,4.0,96,0.00,,,0.33,meteohub,2014-12-25 23:32:00,
2014-12-25 15:37:00,42.8,41.7,30.32,East,90,0.0,4.0,96,0.00,,,0.33,meteohub,2014-12-25 23:37:00,
2014-12-25 15:42:00,42.6,41.9,30.32,East,90,0.0,2.0,97,0.00,,,0.33,meteohub,2014-12-25 23:42:00,
2014-12-25 15:47:00,42.4,41.7,30.32,East,90,0.0,0.0,97,0.00,,,0.33,meteohub,2014-12-25 23:47:00,
2014-12-25 15:52:00,42.4,41.7,30.32,East,90,0.0,0.0,97,0.00,,,0.33,meteohub,2014-12-25 23:52:00,
2014-12-25 15:57:00,42.4,41.7,30.35,West,270,0.0,0.0,97,0.00,,,0.33,meteohub,2014-12-25 23:57:00,
2014-12-25 16:02:00,42.4,41.7,30.35,SSE,158,1.0,2.0,97,0.00,,,0.33,meteohub,2014-12-26 00:02:00,
2014-12-25 16:07:00,42.4,41.9,30.35,SE,135,0.0,3.0,98,0.00,,,0.33,meteohub,2014-12-26 00:07:00,
2014-12-25 16:12:00,42.3,41.7,30.35,South,180,1.0,3.0,98,0.00,,,0.33,meteohub,2014-12-26 00:12:00,
2014-12-25 16:17:00,42.3,41.7,30.35,South,180,0.0,2.0,98,0.00,,,0.33,meteohub,2014-12-26 00:17:00,
2014-12-25 16:22:00,42.1,41.5,30.35,South,180,0.0,2.0,98,0.00,,,0.33,meteohub,2014-12-26 00:22:00,
2014-12-25 16:27:00,41.9,41.4,30.35,South,180,0.0,2.0,98,0.00,,,0.33,meteohub,2014-12-26 00:27:00,
2014-12-25 16:32:00,41.7,41.2,30.35,South,180,0.0,0.0,98,0.00,,,0.33,meteohub,2014-12-26 00:32:00,
2014-12-25 16:37:00,41.7,41.2,30.35,West,270,0.0,0.0,98,0.00,,,0.33,meteohub,2014-12-26 00:37:00,
2014-12-25 16:42:00,41.5,41.0,30.35,WNW,292,0.0,0.0,98,0.00,,,0.33,meteohub,2014-12-26 00:42:00,
2014-12-25 16:47:00,41.5,41.0,30.35,East,90,0.0,0.0,98,0.00,,,0.33,meteohub,2014-12-26 00:47:00,
2014-12-25 16:52:00,41.5,41.0,30.35,NE,45,0.0,2.0,98,0.00,,,0.33,meteohub,2014-12-26 00:52:00,
2014-12-25 16:57:00,41.5,41.0,30.32,NE,45,0.0,2.0,98,0.00,,,0.33,meteohub,2014-12-26 00:57:00,
2014-12-25 17:02:00,41.5,41.0,30.32,NE,45,0.0,2.0,98,0.00,,,0.33,meteohub,2014-12-26 01:02:00,
2014-12-25 17:07:00,41.5,41.0,30.32,North,0,0.0,0.0,98,0.00,,,0.33,meteohub,2014-12-26 01:07:00,
2014-12-25 17:12:00,41.4,40.8,30.35,North,0,0.0,0.0,98,0.00,,,0.33,meteohub,2014-12-26 01:12:00,
2014-12-25 17:17:00,41.4,40.8,30.35,East,90,0.0,0.0,98,0.00,,,0.33,meteohub,2014-12-26 01:17:00,
2014-12-25 17:22:00,41.4,40.8,30.35,East,90,0.0,0.0,98,0.00,,,0.33,meteohub,2014-12-26 01:22:00,
2014-12-25 17:27:00,41.4,40.8,30.35,East,90,0.0,0.0,98,0.00,,,0.33,meteohub,2014-12-26 01:27:00,
2014-12-25 18:12:00,41.0,40.5,30.35,East,90,2.0,-999.0,98,0.00,,,0.33,meteohub,2014-12-26 02:12:00,
2014-12-25 18:17:00,41.0,40.5,30.35,SE,135,2.0,-999.0,98,0.00,,,0.33,meteohub,2014-12-26 02:17:00,
2014-12-25 18:22:00,40.8,40.3,30.35,ESE,112,1.0,3.0,98,0.00,,,0.33,meteohub,2014-12-26 02:22:00,
2014-12-25 18:27:00,40.6,40.1,30.35,East,90,1.0,3.0,98,0.00,,,0.33,meteohub,2014-12-26 02:27:00,
2014-12-25 18:32:00,40.5,39.9,30.35,ENE,68,1.0,3.0,98,0.00,,,0.33,meteohub,2014-12-26 02:32:00,
2014-12-25 18:37:00,40.1,39.6,30.35,ENE,68,4.0,4.0,98,0.00,,,0.33,meteohub,2014-12-26 02:37:00,
2014-12-25 18:42:00,39.7,39.2,30.35,ENE,68,2.0,4.0,98,0.00,,,0.33,meteohub,2014-12-26 02:42:00,
2014-12-25 18:47:00,39.6,39.0,30.35,NE,45,2.0,4.0,98,0.00,,,0.33,meteohub,2014-12-26 02:47:00,
2014-12-25 18:52:00,39.2,38.7,30.35,ENE,68,1.0,4.0,98,0.00,,,0.33,meteohub,2014-12-26 02:52:00,
2014-12-25 18:57:00,39.2,38.7,30.35,West,270,0.0,4.0,98,0.00,,,0.33,meteohub,2014-12-26 02:57:00,
2014-12-25 19:02:00,38.8,38.3,30.35,West,270,0.0,3.0,98,0.00,,,0.33,meteohub,2014-12-26 03:02:00,
2014-12-25 19:07:00,38.7,38.1,30.35,West,270,0.0,2.0,98,0.00,,,0.33,meteohub,2014-12-26 03:07:00,
2014-12-25 19:12:00,38.7,38.1,30.35,WSW,248,0.0,0.0,98,0.00,,,0.33,meteohub,2014-12-26 03:12:00,
2014-12-25 19:17:00,38.5,37.9,30.35,WSW,248,0.0,0.0,98,0.00,,,0.33,meteohub,2014-12-26 03:17:00,
2014-12-25 19:22:00,38.5,37.9,30.35,WSW,248,0.0,0.0,98,0.00,,,0.33,meteohub,2014-12-26 03:22:00,
2014-12-25 19:27:00,38.5,37.9,30.35,East,90,1.0,0.0,98,0.00,,,0.33,meteohub,2014-12-26 03:27:00,
2014-12-25 19:32:00,38.3,37.8,30.35,SSE,158,0.0,2.0,98,0.00,,,0.33,meteohub,2014-12-26 03:32:00,
2014-12-25 19:37:00,38.3,37.8,30.35,South,180,0.0,2.0,98,0.00,,,0.33,meteohub,2014-12-26 03:37:00,
2014-12-25 19:42:00,38.3,37.8,30.35,South,180,0.0,2.0,98,0.00,,,0.33,meteohub,2014-12-26 03:42:00,
2014-12-25 19:47:00,38.1,37.6,30.35,ESE,112,0.0,0.0,98,0.00,,,0.33,meteohub,2014-12-26 03:47:00,
2014-12-25 19:52:00,38.1,37.6,30.35,ESE,112,0.0,0.0,98,0.00,,,0.33,meteohub,2014-12-26 03:52:00,